FW3683 Weather Reports


time (UTC)temp
F
wind
direction
speed
knots
gust
knots
rain 1hr
in
rain 24hr
in
rain mn
in
humidity
%
barometer
mb
20260503200013 70 84 0.0 0.0 0.00 0.00 0.00 22 1022.0
20260503195514 71 110 0.0 0.0 0.00 0.00 0.00 23 1022.1
20260503195011 72 54 0.0 0.0 0.00 0.00 0.00 24 1022.2
20260503194510 70 347 0.0 0.0 0.00 0.00 0.00 25 1022.3
20260503194009 69 134 0.0 0.0 0.00 0.00 0.00 28 1022.4
20260503193510 69 179 0.0 0.0 0.00 0.00 0.00 29 1022.7
20260503193023 69 118 0.0 0.0 0.00 0.00 0.00 28 1022.7
20260503192506 68 300 0.0 0.0 0.00 0.00 0.00 30 1022.8
20260503192004 67 143 0.0 0.0 0.00 0.00 0.00 31 1022.8
20260503191504 67 103 0.0 0.0 0.00 0.00 0.00 29 1023.1
20260503191006 68 59 0.0 0.0 0.00 0.00 0.00 31 1023.1
20260503190605 67 87 0.0 0.0 0.00 0.00 0.00 31 1023.1
20260503190001 67 68 0.0 0.0 0.00 0.00 0.00 31 1023.2
20260503185502 67 169 0.0 0.0 0.00 0.00 0.00 32 1023.3
20260503185100 67 164 0.0 0.0 0.00 0.00 0.00 31 1023.3
20260503184608 67 120 0.0 0.0 0.00 0.00 0.00 33 1023.2
20260503184059 67 141 0.0 0.0 0.00 0.00 0.00 34 1023.3
20260503183558 67 125 0.0 0.0 0.00 0.00 0.00 33 1023.3
20260503183057 66 12 0.0 0.0 0.00 0.00 0.00 34 1023.4
20260503182559 65 337 0.0 0.0 0.00 0.00 0.00 32 1023.6
20260503182055 65 63 0.0 0.0 0.00 0.00 0.00 34 1023.7
20260503181556 65 45 0.0 0.0 0.00 0.00 0.00 33 1023.8
20260503181055 66 281 0.0 0.0 0.00 0.00 0.00 34 1023.7
20260503180553 66 15 0.0 0.0 0.00 0.00 0.00 35 1023.8
20260503180054 66 44 0.0 0.0 0.00 0.00 0.00 34 1023.8
20260503175553 66 2 0.0 0.0 0.00 0.00 0.00 35 1024.0
20260503175152 65 142 0.0 0.0 0.00 0.00 0.00 35 1024.0
20260503174605 65 254 0.0 0.0 0.00 0.00 0.00 38 1024.0
20260503174050 64 293 0.0 0.0 0.00 0.00 0.00 36 1024.1
20260503173549 64 170 0.0 0.0 0.00 0.00 0.00 37 1024.1
20260503173050 64 288 0.0 0.0 0.00 0.00 0.00 36 1024.2
20260503172549 63 317 0.0 0.0 0.00 0.00 0.00 37 1024.3
20260503172047 63 117 0.0 0.0 0.00 0.00 0.00 38 1024.5
20260503171547 64 48 0.0 0.0 0.00 0.00 0.00 39 1024.6
20260503171047 64 195 0.0 0.0 0.00 0.00 0.00 38 1024.7
20260503170546 63 303 0.0 0.0 0.00 0.00 0.00 37 1024.9
20260503150533 58 20 0.0 0.0 0.00 0.00 0.00 44 1026.0
20260503131020 50 346 0.0 0.0 0.00 0.00 0.00 77 1025.9
20260503130521 48 346 0.0 0.0 0.00 0.00 0.00 80 1025.8
20260503110512 31 5 0.0 0.0 0.00 0.00 0.00 95 1025.3
20260503081554 33 20 0.0 0.0 0.00 0.00 0.00 95 1023.2
20260503081051 33 19 0.0 0.0 0.00 0.00 0.00 95 1023.1
20260503080554 34 20 0.0 0.0 0.00 0.00 0.00 95 1023.2
20260503072548 34 16 0.0 0.0 0.00 0.00 0.00 94 1023.0
20260503072052 34 16 0.0 0.0 0.00 0.00 0.00 94 1022.9
20260503071547 34 16 0.0 0.0 0.00 0.00 0.00 94 1022.8
20260503071046 34 16 0.0 0.0 0.00 0.00 0.00 94 1022.8
20260503070546 34 16 0.0 0.0 0.00 0.00 0.00 94 1022.8
20260503055035 36 351 0.0 0.0 0.00 0.00 0.00 93 1022.2
20260503054536 36 351 0.0 0.0 0.00 0.00 0.00 93 1022.2
20260503054035 36 351 0.0 0.0 0.00 0.00 0.00 93 1022.4
20260503053535 36 351 0.0 0.0 0.00 0.00 0.00 93 1022.3
20260503052534 37 344 0.0 0.0 0.00 0.00 0.00 93 1022.3
20260503052035 37 344 0.0 0.0 0.00 0.00 0.00 93 1022.3
20260503051533 37 19 0.0 0.0 0.00 0.00 0.00 93 1022.2
20260503051032 37 19 0.0 0.0 0.00 0.00 0.00 93 1022.2
20260503050532 37 19 0.0 0.0 0.00 0.00 0.00 93 1022.1
20260503050032 37 19 0.0 0.0 0.00 0.00 0.00 93 1022.0
20260503045531 37 19 0.0 0.0 0.00 0.00 0.00 92 1022.0
20260503045031 38 19 0.0 0.0 0.00 0.00 0.00 92 1022.0
20260503044539 38 19 0.0 0.0 0.00 0.00 0.00 91 1022.0
20260503044028 38 19 0.0 0.0 0.00 0.00 0.00 91 1021.8
20260503043531 38 19 0.0 0.0 0.00 0.00 0.00 91 1021.9
20260503042530 38 19 0.0 0.0 0.00 0.00 0.00 91 1021.8
20260503042029 39 19 0.0 0.0 0.00 0.00 0.00 91 1021.8
20260503041528 39 19 0.0 0.0 0.00 0.00 0.00 90 1021.8
20260503041027 39 19 0.0 0.0 0.00 0.00 0.00 90 1021.5
20260503040526 39 19 0.0 0.0 0.00 0.00 0.00 90 1021.4
20260503040026 39 19 0.0 0.0 0.00 0.00 0.00 90 1021.4
20260503035526 39 19 0.0 0.0 0.00 0.00 0.00 89 1021.3
20260503035024 40 19 0.0 0.0 0.00 0.00 0.00 89 1021.2
20260503034524 40 18 0.0 0.0 0.00 0.00 0.00 89 1021.1
20260503034025 40 19 0.0 0.0 0.00 0.00 0.00 88 1021.0
20260503033524 40 19 0.0 0.0 0.00 0.00 0.00 88 1021.0
20260503032522 41 210 0.0 0.0 0.00 0.00 0.00 87 1020.9
20260503032021 41 210 0.0 0.0 0.00 0.00 0.00 87 1021.0
20260503031521 41 53 0.0 0.0 0.00 0.00 0.00 86 1020.9
20260503031020 41 56 0.0 0.0 0.00 0.00 0.00 86 1020.9
20260503030522 41 64 0.0 0.0 0.00 0.00 0.00 85 1020.8
20260503030018 42 64 0.0 0.0 0.00 0.00 0.00 85 1020.8
20260503025516 42 64 0.0 0.0 0.00 0.00 0.00 84 1020.8
20260503025015 42 64 0.0 0.0 0.00 0.00 0.00 83 1020.8
20260503024514 43 64 0.0 0.0 0.00 0.00 0.00 83 1020.7
20260503024013 43 64 0.0 0.0 0.00 0.00 0.00 82 1020.6
20260503023513 43 64 0.0 0.0 0.00 0.00 0.00 81 1020.6
20260503022507 44 13 0.0 0.0 0.00 0.00 0.00 79 1020.5
20260503022006 44 13 0.0 0.0 0.00 0.00 0.00 78 1020.4
20260503021506 44 338 0.0 0.0 0.00 0.00 0.00 78 1020.4
20260503021005 45 98 0.0 0.0 0.00 0.00 0.00 77 1020.4
20260503020504 45 98 0.0 0.0 0.00 0.00 0.00 77 1020.2
20260503020004 46 98 0.0 0.0 0.00 0.00 0.00 76 1020.1
20260503015503 46 98 0.0 0.0 0.00 0.00 0.00 76 1020.1
20260503015001 46 98 0.0 0.0 0.00 0.00 0.00 74 1020.1
20260503014620 47 84 0.0 0.0 0.00 0.00 0.00 73 1020.0
20260503014058 47 103 0.0 0.0 0.00 0.00 0.00 71 1020.0
20260503013557 48 103 0.0 0.0 0.00 0.00 0.00 71 1019.9
20260503012557 49 103 0.0 0.0 0.00 0.00 0.00 68 1019.7
20260503012054 50 103 0.0 0.0 0.00 0.00 0.00 66 1019.5
20260503011552 50 103 0.0 0.0 0.00 0.00 0.00 64 1019.4
20260503011052 51 22 0.0 0.0 0.00 0.00 0.00 61 1019.4
20260503010548 53 22 0.0 0.0 0.00 0.00 0.00 57 1019.3
20260503010047 54 233 0.0 0.0 0.00 0.00 0.00 53 1019.3
20260503005546 54 61 0.0 0.0 0.00 0.00 0.00 49 1019.0
20260503005045 55 320 0.0 0.0 0.00 0.00 0.00 45 1018.9
20260503004546 55 315 0.0 0.0 0.00 0.00 0.00 45 1019.0
20260503004046 56 274 0.0 0.0 0.00 0.00 0.00 44 1018.9
20260503003545 56 254 0.0 0.0 0.00 0.00 0.00 44 1018.8
20260503002546 57 236 0.0 0.0 0.00 0.00 0.00 43 1018.6
20260503002046 57 350 0.0 0.0 0.00 0.00 0.00 42 1018.5
20260503001605 57 319 0.0 0.0 0.00 0.00 0.00 41 1018.4
20260503001044 58 309 0.0 0.0 0.00 0.00 0.00 41 1018.3
20260503000544 58 321 0.0 0.0 0.00 0.00 0.00 40 1018.2
20260503000048 58 275 0.0 0.0 0.00 0.00 0.00 39 1018.2
20260502235544 59 252 0.0 0.0 0.00 0.00 0.00 40 1018.1
20260502235044 59 300 0.0 0.0 0.00 0.00 0.00 40 1017.9
20260502234549 59 297 0.0 0.0 0.00 0.00 0.00 40 1017.8
20260502234043 60 257 0.0 0.0 0.00 0.00 0.00 38 1017.8
20260502233544 60 304 0.0 0.0 0.00 0.00 0.00 38 1017.8
20260502232544 60 282 0.0 0.0 0.00 0.00 0.00 37 1017.6
20260502232044 61 319 0.0 0.0 0.00 0.00 0.00 37 1017.5
20260502231545 61 176 0.0 0.0 0.00 0.00 0.00 36 1017.4
20260502231044 61 269 0.0 0.0 0.00 0.00 0.00 37 1017.4
20260502230544 61 262 0.0 0.0 0.00 0.00 0.00 36 1017.2
20260502230043 61 306 0.0 0.0 0.00 0.00 0.00 36 1017.2
20260502225543 61 184 0.0 0.0 0.00 0.00 0.00 37 1017.2
20260502225043 61 153 0.0 0.0 0.00 0.00 0.00 38 1017.2
20260502224543 61 179 0.0 0.0 0.00 0.00 0.00 38 1017.2
20260502224045 61 257 0.0 0.0 0.00 0.00 0.00 39 1017.2
20260502223544 61 183 0.0 0.0 0.00 0.00 0.00 41 1017.1
20260502222542 62 359 0.0 0.0 0.00 0.00 0.00 40 1017.0
20260502222044 62 266 0.0 0.0 0.00 0.00 0.00 36 1016.9
20260502221545 62 345 0.0 0.0 0.00 0.00 0.00 37 1016.8
20260502221041 62 298 0.0 0.0 0.00 0.00 0.00 36 1016.8
20260502220541 62 191 0.0 0.0 0.00 0.00 0.00 36 1016.8
20260502220043 63 229 0.0 0.0 0.00 0.00 0.00 38 1016.7
20260502215542 63 268 0.0 0.0 0.00 0.00 0.00 35 1016.7
20260502215041 63 300 0.0 0.0 0.00 0.00 0.00 36 1016.6
20260502214548 63 261 0.0 0.0 0.00 0.00 0.00 38 1016.5
20260502214041 63 290 0.0 0.0 0.00 0.00 0.00 36 1016.3
20260502213541 63 309 0.0 0.0 0.00 0.00 0.00 35 1016.1
20260502212541 64 262 0.0 0.0 0.00 0.00 0.00 35 1016.0
20260502212040 65 229 0.0 0.0 0.00 0.00 0.00 33 1015.9
20260502211540 65 77 0.0 0.0 0.00 0.00 0.00 33 1015.9
20260502211039 65 219 0.0 0.0 0.00 0.00 0.00 33 1015.9
20260502210538 65 219 0.0 0.0 0.00 0.00 0.00 35 1016.0
20260502210043 64 140 0.0 0.0 0.00 0.00 0.00 34 1016.0
20260502205538 64 124 0.0 0.0 0.00 0.00 0.00 34 1016.0
20260502205041 64 103 0.0 0.0 0.00 0.00 0.00 36 1015.9
20260502204542 64 50 0.0 0.0 0.00 0.00 0.00 37 1015.8
20260502204037 64 147 0.0 0.0 0.00 0.00 0.00 35 1016.0
20260502203537 65 112 0.0 0.0 0.00 0.00 0.00 39 1016.1
20260502202535 66 203 0.0 0.0 0.00 0.00 0.00 36 1016.1
20260502202035 64 122 0.0 0.0 0.00 0.00 0.00 41 1016.1
20260502201537 64 115 0.0 0.0 0.00 0.00 0.00 38 1016.1
20260502201035 65 106 0.0 0.0 0.00 0.00 0.00 38 1016.3